GW6721 Weather Reports


time (UTC)temp
C
wind
direction
speed
KPH
gust
KPH
rain 1hr
cm
rain 24hr
cm
rain mn
cm
humidity
%
barometer
mb
20260509145757 12 172 0.0 0.0 0.18 0.08 0.08 90 1010.7
20260509145257 12 172 0.0 0.0 0.18 0.08 0.08 90 1010.7
20260509144754 12 138 0.0 0.0 0.18 0.08 0.08 89 1010.7
20260509144251 12 9 0.0 0.0 0.18 0.08 0.08 90 1010.7
20260509143748 12 1 0.0 0.0 0.00 0.05 0.05 90 1010.6
20260509143245 12 2 0.0 0.0 0.13 0.05 0.05 90 1010.7
20260509142741 12 2 0.0 0.0 0.13 0.05 0.05 89 1010.6
20260509142237 12 97 0.0 0.0 0.00 0.03 0.03 88 1010.4
20260509141733 12 47 0.0 1.6 0.00 0.03 0.03 87 1010.4
20260509141231 11 282 0.0 0.0 0.00 0.03 0.03 88 1010.5
20260509140727 11 153 1.6 1.6 0.00 0.03 0.03 87 1010.2
20260509140225 11 146 0.0 0.0 0.00 0.03 0.03 88 1010.2
20260509135722 11 205 0.0 0.0 0.00 0.03 0.03 87 1010.4
20260509135220 11 115 0.0 0.0 0.00 0.03 0.03 89 1010.2
20260509134716 11 175 0.0 1.6 0.00 0.03 0.03 88 1010.2
20260509134214 11 353 1.6 3.2 0.00 0.03 0.03 86 1010.4
20260509133711 11 331 0.0 0.0 0.00 0.03 0.03 86 1010.4
20260509133208 11 303 0.0 0.0 0.00 0.03 0.03 90 1010.4
20260509132706 11 168 0.0 0.0 0.00 0.03 0.03 91 1010.2
20260509132205 11 169 0.0 0.0 0.00 0.03 0.03 91 1010.3
20260509131700 11 228 0.0 0.0 0.00 0.03 0.03 91 1010.2
20260509131157 11 205 0.0 0.0 0.00 0.03 0.03 90 1010.0
20260509130653 11 244 0.0 0.0 0.00 0.03 0.03 89 1010.0
20260509130149 11 285 0.0 0.0 0.00 0.03 0.03 90 1009.9
20260509125646 11 264 0.0 0.0 0.00 0.03 0.03 90 1009.7
20260509125143 10 232 0.0 0.0 0.00 0.03 0.03 88 1009.7
20260509124639 10 231 0.0 0.0 0.00 0.03 0.03 88 1009.6
20260509124136 10 230 0.0 0.0 0.18 0.03 0.03 90 1009.9
20260509123634 10 223 0.0 0.0 0.18 0.03 0.03 88 1010.1
20260509123131 10 168 0.0 0.0 0.00 0.00 0.00 86 1010.3
20260509122627 10 349 0.0 0.0 0.00 0.00 0.00 85 1010.3
20260509122124 10 299 0.0 0.0 0.00 0.00 0.00 86 1010.4
20260509121620 10 295 0.0 0.0 0.00 0.00 0.00 86 1010.5
20260509121118 10 272 0.0 0.0 0.00 0.00 0.00 88 1010.5
20260509120616 10 341 0.0 1.6 0.00 0.00 0.00 87 1010.4
20260509120114 10 291 0.0 0.0 0.00 0.00 0.00 89 1010.4
20260509115611 10 307 0.0 1.6 0.00 0.00 0.00 90 1010.3
20260509115109 10 294 0.0 0.0 0.00 0.00 0.00 90 1010.1
20260509114607 10 297 0.0 1.6 0.00 0.00 0.00 89 1009.8
20260509114106 10 162 1.6 1.6 0.00 0.00 0.00 89 1009.8
20260509113603 10 181 0.0 0.0 0.00 0.00 0.00 90 1009.9
20260509113100 10 149 1.6 1.6 0.00 0.00 0.00 90 1009.9
20260509112556 10 179 1.6 1.6 0.00 0.00 0.00 90 1010.1
20260509112054 9 319 3.2 3.2 0.00 0.00 0.00 90 1010.1
20260509111551 9 187 0.0 0.0 0.00 0.00 0.00 90 1010.1
20260509111048 9 163 0.0 1.6 0.00 0.00 0.00 90 1009.7
20260509110545 8 226 0.0 1.6 0.00 0.00 0.00 90 1009.8
20260509110042 8 265 0.0 0.0 0.00 0.00 0.00 91 1010.0
20260509105540 8 300 0.0 0.0 0.00 0.00 0.00 91 1009.7
20260509105037 8 312 0.0 0.0 0.00 0.00 0.00 91 1009.6
20260509104534 8 300 1.6 1.6 0.00 0.00 0.00 91 1009.6
20260509104031 8 147 0.0 0.0 0.00 0.00 0.00 91 1009.3
20260509103529 8 213 0.0 0.0 0.00 0.00 0.00 92 1009.5
20260509103027 8 101 0.0 0.0 0.00 0.00 0.00 92 1009.6
20260509102524 8 357 0.0 0.0 0.00 0.00 0.00 92 1009.7
20260509102020 8 1 0.0 0.0 0.00 0.00 0.00 92 1009.5
20260509101517 8 201 0.0 0.0 0.00 0.00 0.00 93 1009.7
20260509101014 8 167 0.0 0.0 0.00 0.00 0.00 93 1009.6
20260509100511 8 166 0.0 0.0 0.00 0.00 0.00 93 1009.7
20260509100009 8 288 0.0 0.0 0.00 0.00 0.00 93 1009.7
20260509095505 8 254 0.0 0.0 0.00 0.00 0.00 93 1009.5
20260509095002 8 304 0.0 0.0 0.00 0.00 0.00 93 1009.6
20260509094458 8 300 0.0 0.0 0.00 0.00 0.00 93 1009.6
20260509093956 8 303 0.0 0.0 0.00 0.00 0.00 93 1009.6
20260509093454 8 302 0.0 0.0 0.00 0.00 0.00 93 1009.5
20260509092951 8 302 0.0 0.0 0.00 0.00 0.00 92 1009.7
20260509092449 8 302 0.0 0.0 0.00 0.00 0.00 92 1009.7
20260509091948 8 296 0.0 0.0 0.00 0.00 0.00 92 1009.7
20260509091444 8 295 0.0 0.0 0.00 0.00 0.00 92 1009.6
20260509090941 8 295 0.0 0.0 0.00 0.00 0.00 92 1009.6
20260509090438 8 257 0.0 0.0 0.00 0.00 0.00 92 1009.6
20260509085936 8 230 0.0 0.0 0.00 0.00 0.00 92 1009.6
20260509085432 8 295 0.0 0.0 0.00 0.00 0.00 92 1009.7
20260509084929 8 299 0.0 0.0 0.00 0.00 0.00 92 1009.7
20260509084426 8 321 0.0 0.0 0.00 0.00 0.00 92 1009.7
20260509083923 8 322 0.0 0.0 0.00 0.00 0.00 92 1009.7
20260509083420 8 324 0.0 0.0 0.00 0.00 0.00 92 1009.8
20260509082917 8 255 0.0 0.0 0.00 0.00 0.00 92 1009.9
20260509082415 8 201 0.0 0.0 0.00 0.00 0.00 92 1009.9
20260509081911 8 201 0.0 0.0 0.00 0.00 0.00 92 1009.8
20260509081408 8 200 0.0 0.0 0.00 0.00 0.00 92 1009.8
20260509080906 8 200 0.0 0.0 0.00 0.00 0.00 92 1009.9
20260509080403 7 272 0.0 0.0 0.00 0.00 0.00 92 1010.0
20260509075902 8 294 0.0 0.0 0.00 0.00 0.00 92 1009.9
20260509075358 8 247 0.0 0.0 0.00 0.00 0.00 92 1009.9
20260509074856 8 247 0.0 0.0 0.00 0.00 0.00 92 1009.9
20260509074353 8 86 0.0 0.0 0.00 0.00 0.00 91 1009.9
20260509073849 8 88 0.0 0.0 0.00 0.00 0.00 91 1010.0
20260509073346 8 174 0.0 0.0 0.00 0.00 0.00 90 1010.0
20260509072843 8 210 0.0 0.0 0.00 0.00 0.00 90 1010.1
20260509072339 8 210 0.0 0.0 0.00 0.00 0.00 90 1010.2
20260509071836 8 272 0.0 0.0 0.00 0.00 0.00 90 1010.2
20260509071333 8 272 0.0 0.0 0.00 0.00 0.00 90 1010.3
20260509070830 8 196 0.0 0.0 0.00 0.00 0.00 90 1010.2
20260509070327 8 307 0.0 0.0 0.00 0.00 0.00 90 1010.4
20260509065823 8 210 0.0 0.0 0.00 0.00 0.00 90 1010.5
20260509065319 8 294 0.0 0.0 0.00 0.00 0.00 89 1010.6
20260509064815 8 283 0.0 0.0 0.00 0.00 0.00 89 1010.7
20260509064313 8 272 0.0 0.0 0.00 0.00 0.00 89 1010.7
20260509063810 8 291 0.0 0.0 0.00 0.00 0.00 89 1010.5
20260509063306 8 225 0.0 0.0 0.00 0.00 0.00 89 1010.4
20260509062804 8 240 0.0 0.0 0.00 0.00 0.00 88 1010.5
20260509062301 9 299 0.0 0.0 0.00 0.00 0.00 88 1010.6
20260509061758 9 183 0.0 0.0 0.00 0.00 0.00 88 1010.7
20260509061256 9 289 0.0 0.0 0.00 0.00 0.00 88 1010.8
20260509060752 9 315 0.0 0.0 0.00 0.00 0.00 87 1010.6
20260509060249 10 270 0.0 0.0 0.00 0.00 0.00 87 1010.7
20260509055745 10 228 0.0 0.0 0.00 0.00 0.00 87 1010.6
20260509055241 10 283 0.0 0.0 0.00 0.00 0.00 86 1010.8
20260509054738 10 318 0.0 0.0 0.00 0.00 0.00 85 1010.6
20260509054234 10 202 0.0 0.0 0.00 0.00 0.00 84 1010.7
20260509053733 10 202 0.0 0.0 0.00 0.00 0.00 85 1010.8
20260509053229 10 295 0.0 0.0 0.00 0.00 0.00 87 1010.7
20260509052728 10 295 0.0 0.0 0.00 0.00 0.00 86 1010.8
20260509052225 10 307 0.0 0.0 0.00 0.00 0.00 87 1010.7
20260509051722 10 308 0.0 0.0 0.00 0.00 0.00 86 1010.9
20260509051220 10 321 0.0 0.0 0.00 0.00 0.00 86 1010.9
20260509050717 10 321 0.0 0.0 0.00 0.00 0.00 85 1010.9
20260509050213 10 258 0.0 0.0 0.00 0.00 0.00 85 1010.9
20260509045711 10 329 0.0 0.0 0.00 0.00 0.00 85 1010.9
20260509045208 10 312 0.0 0.0 0.00 0.00 0.00 85 1011.0
20260509044705 10 312 0.0 0.0 0.00 0.00 0.00 84 1010.9
20260509044202 10 240 0.0 0.0 0.00 0.00 0.00 84 1010.9
20260509043658 10 241 0.0 0.0 0.00 0.00 0.00 85 1010.9
20260509043154 10 241 0.0 0.0 0.00 0.00 0.00 84 1011.0
20260509042651 10 162 0.0 0.0 0.00 0.00 0.00 83 1011.2
20260509042147 10 276 0.0 0.0 0.00 0.00 0.00 83 1011.0
20260509041643 10 324 0.0 0.0 0.00 0.00 0.00 83 1011.0
20260509041141 10 195 0.0 0.0 0.00 0.00 0.00 81 1011.0
20260509040639 10 195 0.0 0.0 0.00 0.00 0.00 82 1010.9
20260509040136 10 182 0.0 0.0 0.00 0.00 0.00 82 1010.8
20260509035633 10 195 0.0 0.0 0.00 0.00 0.00 82 1011.0
20260509035129 10 292 0.0 0.0 0.00 0.00 0.00 82 1011.2
20260509034627 10 324 0.0 0.0 0.00 0.00 0.00 82 1011.2
20260509034124 10 324 0.0 0.0 0.00 0.00 0.00 82 1011.2
20260509033621 10 324 0.0 0.0 0.00 0.00 0.00 82 1011.2
20260509033118 10 286 0.0 0.0 0.00 0.00 0.00 82 1011.0
20260509032615 11 286 0.0 0.0 0.00 0.00 0.00 81 1011.1
20260509032112 10 211 0.0 0.0 0.00 0.00 0.00 79 1011.3
20260509031610 10 220 0.0 0.0 0.00 0.00 0.00 81 1011.3
20260509031107 11 321 0.0 0.0 0.00 0.00 0.00 80 1011.4
20260509030605 10 242 0.0 0.0 0.00 0.00 0.00 78 1011.3
20260509025558 10 290 0.0 0.0 0.00 0.00 0.00 79 1011.7
20260509025054 10 329 0.0 0.0 0.00 0.00 0.00 80 1011.5
20260509024550 11 329 0.0 0.0 0.00 0.00 0.00 79 1011.3
20260509024046 11 329 1.6 1.6 0.00 0.00 0.00 78 1011.4
20260509023544 11 245 0.0 0.0 0.00 0.00 0.00 77 1011.2
20260509023040 11 209 0.0 0.0 0.00 0.00 0.00 78 1011.0
20260509022537 11 304 1.6 1.6 0.00 0.00 0.00 79 1011.0
20260509022035 11 234 0.0 0.0 0.00 0.00 0.00 78 1010.9
20260509021532 11 280 0.0 0.0 0.00 0.00 0.00 79 1011.1
20260509021028 11 304 0.0 0.0 0.00 0.00 0.00 79 1011.0
20260509020527 11 304 0.0 0.0 0.00 0.00 0.00 79 1011.0
20260509020023 11 259 0.0 0.0 0.00 0.00 0.00 77 1011.0
20260509015523 11 202 0.0 0.0 0.00 0.00 0.00 75 1010.9
20260509015019 11 229 0.0 0.0 0.00 0.00 0.00 78 1010.9
20260509014516 11 236 0.0 0.0 0.00 0.00 0.00 77 1011.2
20260509014012 11 211 0.0 0.0 0.00 0.00 0.00 77 1011.1
20260509013509 11 226 0.0 0.0 0.00 0.00 0.00 76 1010.8
20260509013005 11 325 0.0 0.0 0.00 0.00 0.00 77 1010.8
20260509012501 12 300 0.0 0.0 0.00 0.00 0.00 76 1011.1
20260509011958 12 311 0.0 0.0 0.00 0.00 0.00 75 1010.8
20260509011456 12 290 0.0 0.0 0.00 0.00 0.00 75 1010.7
20260509010953 12 221 0.0 0.0 0.00 0.00 0.00 73 1010.8
20260509010451 12 198 0.0 0.0 0.00 0.00 0.00 72 1010.8
20260509005947 12 183 0.0 0.0 0.00 0.00 0.00 73 1010.8
20260509005446 12 219 0.0 0.0 0.00 0.00 0.00 71 1010.7
20260509004945 12 296 0.0 0.0 0.00 0.00 0.00 72 1010.9
20260509004442 12 296 0.0 0.0 0.00 0.00 0.00 71 1010.8
20260509003940 12 295 0.0 0.0 0.00 0.00 0.00 70 1010.7
20260509003438 12 296 0.0 0.0 0.00 0.00 0.00 70 1010.7
20260509002935 12 172 0.0 0.0 0.00 0.00 0.00 68 1010.7
20260509002433 12 215 1.6 1.6 0.00 0.00 0.00 67 1010.8
20260509001930 13 304 0.0 0.0 0.00 0.00 0.00 68 1010.8
20260509001426 13 171 1.6 1.6 0.00 0.00 0.00 65 1010.6
20260509000923 13 305 0.0 0.0 0.00 0.00 0.00 63 1010.7
20260509000421 13 218 0.0 0.0 0.00 0.00 0.00 63 1010.7
20260508235916 13 224 0.0 0.0 0.00 0.00 0.00 63 1010.7
20260508235415 14 224 0.0 0.0 0.00 0.00 0.00 61 1010.6
20260508234911 14 287 0.0 0.0 0.00 0.00 0.00 61 1010.5
20260508234408 15 206 0.0 0.0 0.00 0.00 0.00 58 1010.3
20260508233906 15 206 0.0 0.0 0.00 0.00 0.00 55 1010.2
20260508233405 15 172 0.0 1.6 0.00 0.00 0.00 53 1010.2
20260508232901 15 331 0.0 1.6 0.00 0.00 0.00 52 1010.1
20260508232358 16 193 1.6 1.6 0.00 0.00 0.00 52 1010.1
20260508231856 16 319 0.0 1.6 0.00 0.00 0.00 52 1010.1
20260508231352 16 315 0.0 0.0 0.00 0.00 0.00 57 1010.0
20260508230849 16 188 0.0 0.0 0.00 0.00 0.00 50 1009.8
20260508230345 15 254 0.0 0.0 0.00 0.00 0.00 50 1010.0
20260508225843 15 224 0.0 0.0 0.00 0.00 0.00 51 1010.0
20260508225339 16 225 0.0 0.0 0.00 0.00 0.00 54 1010.1
20260508224838 16 224 0.0 0.0 0.00 0.00 0.00 54 1010.0
20260508224335 16 225 0.0 0.0 0.00 0.00 0.00 50 1010.1
20260508223832 16 232 0.0 0.0 0.00 0.00 0.00 48 1009.9
20260508223329 16 227 0.0 1.6 0.00 0.00 0.00 47 1010.1
20260508222827 16 35 4.8 6.4 0.00 0.00 0.00 44 1009.8
20260508222324 16 255 0.0 0.0 0.00 0.00 0.00 46 1009.8
20260508221821 17 235 0.0 0.0 0.00 0.00 0.00 46 1009.7
20260508221316 17 283 0.0 0.0 0.00 0.00 0.00 44 1009.7
20260508220813 16 179 0.0 1.6 0.00 0.00 0.00 45 1009.8
20260508220309 16 155 1.6 1.6 0.00 0.00 0.00 48 1009.8
20260508215806 16 239 1.6 1.6 0.00 0.00 0.00 46 1010.0
20260508215306 16 325 1.6 3.2 0.00 0.00 0.00 43 1009.9
20260508214759 16 217 4.8 4.8 0.00 0.00 0.00 44 1010.2
20260508214256 16 214 0.0 1.6 0.00 0.00 0.00 48 1010.2
20260508213753 16 208 0.0 1.6 0.00 0.00 0.00 44 1010.0
20260508213250 16 36 1.6 1.6 0.00 0.00 0.00 42 1010.0
20260508212746 16 133 1.6 3.2 0.00 0.00 0.00 42 1010.1
20260508212242 16 284 6.4 9.7 0.00 0.00 0.00 40 1009.9
20260508211738 16 113 0.0 1.6 0.00 0.00 0.00 41 1009.9
20260508211234 16 214 0.0 0.0 0.00 0.00 0.00 44 1009.9
20260508210732 17 259 0.0 0.0 0.00 0.00 0.00 42 1009.8
20260508210229 16 304 0.0 1.6 0.00 0.00 0.00 43 1009.7
20260508205725 16 297 0.0 0.0 0.00 0.00 0.00 44 1009.6
20260508205222 16 303 0.0 0.0 0.00 0.00 0.00 47 1009.6
20260508204718 16 206 1.6 1.6 0.00 0.00 0.00 44 1009.8
20260508204215 17 213 0.0 0.0 0.00 0.00 0.00 44 1009.8
20260508203711 16 308 3.2 4.8 0.00 0.00 0.00 40 1009.7
20260508203207 16 247 0.0 1.6 0.00 0.00 0.00 41 1009.6
20260508202703 17 354 1.6 3.2 0.00 0.00 0.00 40 1009.7
20260508202201 17 195 1.6 1.6 0.00 0.00 0.00 43 1009.6
20260508201657 17 330 1.6 1.6 0.00 0.00 0.00 41 1009.7